Voltar ao catálogo

OPS 6909

VELA 9

LostMilitarHEO
NORAD 3954·PAYLOAD·🇺🇸 United States

Lançado May 23, 1969 de Cape Canaveral Space Force Station

Loading…

Próximas Passagens (próximas 24 horas)

TLE

ObsoletoSource: Space-Track

Época: Jan 13, 2026, 06:44 UTC

1 03954U 69046D   26013.28088617  .00000046  00000-0  00000-0 0  9998
2 03954  89.1343  29.9242 7044937  89.6246   1.2250  0.21516406 12679

Acompanhe OPS 6909 em tempo real com AllMySat

Download on the App Store